Location: ??????
(55.6500°N, 37.8000°E)
Time: 09:47:24
(UTC+00:00)

Cosmos 2297 - Visible Passes

Search period start: 24 July 2024 00:00
Search period end: 03 August 2024 00:00
Orbit: 835 x 858 km, 71.0° (Epoch: 24 July)

Date Brightness Start Highest point End Pass type
(mag) Time Alt. Az. Time Alt. Az. Time Alt. Az.
24 Jul 4.9 19:01:33 10° SSE 19:06:05 25° ESE 19:10:36 10° NE visible
24 Jul 3.8 20:43:57 10° SW 20:49:40 81° NW 20:55:25 10° NNE visible
24 Jul 5.6 22:29:49 10° W 22:34:41 28° NNW 22:39:34 10° NNE visible
25 Jul 6.2 00:17:04 10° NW 00:20:48 17° N 00:24:31 10° NE visible
25 Jul 4.9 18:48:00 10° SSE 18:52:30 24° ESE 18:56:59 10° NE visible
25 Jul 3.8 20:30:20 10° SW 20:36:05 82° NW 20:41:49 10° NNE visible
25 Jul 5.6 22:16:11 10° W 22:21:04 28° NNW 22:25:58 10° NNE visible
26 Jul 6.3 00:03:26 10° NW 00:07:10 17° N 00:10:53 10° NE visible
26 Jul 4.9 18:34:28 10° SSE 18:38:54 24° ESE 18:43:21 10° NE visible
26 Jul 3.8 20:16:44 10° SW 20:22:29 84° NW 20:28:13 10° NNE visible
26 Jul 5.6 22:02:33 10° W 22:07:27 28° NNW 22:12:21 10° NNE visible
26 Jul 6.3 23:49:48 10° NW 23:53:32 17° N 23:57:16 10° NE visible
27 Jul 3.8 20:03:08 10° SW 20:08:52 85° NW 20:14:36 10° NE visible
27 Jul 5.6 21:48:54 10° W 21:53:50 29° NNW 21:58:45 10° NNE visible
27 Jul 6.3 23:36:10 10° NW 23:39:55 17° N 23:43:38 10° NE visible
28 Jul 3.8 19:49:32 10° SW 19:55:16 86° WNW 20:01:01 10° NE visible
28 Jul 5.6 21:35:16 10° W 21:40:12 29° NNW 21:45:09 10° NNE visible
28 Jul 6.4 23:22:32 10° NW 23:26:16 17° N 23:30:00 10° NE visible
29 Jul 3.8 19:35:56 10° SSW 19:41:41 88° NW 19:47:24 10° NE visible
29 Jul 5.6 21:21:38 10° W 21:26:36 29° NNW 21:31:32 10° NNE visible
29 Jul 6.4 23:08:54 10° NW 23:12:39 17° N 23:16:23 10° NE visible
30 Jul 3.8 19:22:20 10° SSW 19:28:05 89° NW 19:33:49 10° NE visible
30 Jul 5.7 21:08:00 10° W 21:12:58 30° NNW 21:17:57 10° NNE visible
30 Jul 6.4 22:55:16 10° NW 22:59:01 18° N 23:02:46 10° NE visible
31 Jul 6.4 00:41:05 10° NNW 00:45:21 21° NNE 00:49:35 10° ENE visible
31 Jul 3.7 19:08:45 10° SSW 19:14:28 90° SE 19:20:12 10° NE visible
31 Jul 5.7 20:54:22 10° W 20:59:21 30° NNW 21:04:21 10° NNE visible
31 Jul 6.5 22:41:38 10° NW 22:45:23 18° N 22:49:08 10° NE visible
01 Aug 6.4 00:27:28 10° NNW 00:31:43 21° NNE 00:35:57 10° ENE visible
01 Aug 3.7 18:55:09 10° SSW 19:00:52 88° ESE 19:06:36 10° NE visible
01 Aug 5.7 20:40:44 10° W 20:45:45 30° NNW 20:50:44 10° NNE visible
01 Aug 6.5 22:28:00 10° NW 22:31:45 18° N 22:35:31 10° NE visible
02 Aug 6.5 00:13:52 10° NNW 00:18:06 21° NNE 00:22:18 10° ENE visible
02 Aug 3.7 18:41:33 10° SSW 18:47:16 87° ESE 18:53:00 10° NE visible
02 Aug 5.7 20:27:05 10° W 20:32:07 31° NW 20:37:08 10° NNE visible
02 Aug 6.5 22:14:22 10° NW 22:18:08 18° N 22:21:54 10° NE visible
